TimeCST,TemperatureF,Dew PointF,Humidity,Sea Level PressureIn,VisibilityMPH,Wind Direction,Wind SpeedMPH,Gust SpeedMPH,PrecipitationIn,Events,Conditions,WindDirDegrees,DateUTC
12:52 AM,35.1,28.9,78,29.99,10.0,ENE,12.7,20.7,N/A,,Clear,70,2013-02-26 06:52:00
1:52 AM,35.1,28.9,78,29.99,10.0,ENE,11.5,-,N/A,,Clear,70,2013-02-26 07:52:00
2:52 AM,34.0,28.9,82,29.95,9.0,ENE,12.7,-,N/A,,Clear,60,2013-02-26 08:52:00
3:52 AM,34.0,28.0,79,29.91,9.0,ENE,17.3,-,N/A,,Clear,60,2013-02-26 09:52:00
4:52 AM,33.1,28.0,82,29.90,9.0,ENE,17.3,-,N/A,,Clear,60,2013-02-26 10:52:00
5:52 AM,33.1,28.0,82,29.86,7.0,NE,15.0,24.2,N/A,,Clear,50,2013-02-26 11:52:00
6:52 AM,33.1,27.0,78,29.84,9.0,NE,16.1,24.2,N/A,,Scattered Clouds,50,2013-02-26 12:52:00
7:52 AM,33.1,27.0,78,29.85,8.0,NE,19.6,27.6,N/A,,Clear,50,2013-02-26 13:52:00
9:52 AM,35.1,27.0,72,29.73,9.0,NE,21.9,31.1,N/A,,Partly Cloudy,50,2013-02-26 15:52:00
10:52 AM,34.0,27.0,75,29.70,10.0,NE,18.4,28.8,N/A,,Partly Cloudy,40,2013-02-26 16:52:00
11:52 AM,34.0,26.1,73,29.68,10.0,NE,18.4,28.8,N/A,,Overcast,40,2013-02-26 17:52:00
12:11 PM,33.8,26.6,75,29.64,10.0,NE,16.1,29.9,N/A,,Overcast,40,2013-02-26 18:11:00
12:27 PM,33.8,26.6,75,29.65,2.5,NE,16.1,27.6,0.00,Snow,Light Snow,40,2013-02-26 18:27:00
12:33 PM,33.8,26.6,75,29.65,0.8,ENE,20.7,29.9,0.00,Snow,Light Snow,60,2013-02-26 18:33:00
12:44 PM,32.0,28.4,87,29.66,0.2,NE,19.6,33.4,0.00,Fog-Snow,Heavy Snow,50,2013-02-26 18:44:00
12:52 PM,32.0,30.0,92,29.68,0.2,NE,18.4,29.9,0.00,Fog-Snow,Heavy Snow,50,2013-02-26 18:52:00
1:05 PM,30.2,30.2,100,29.64,0.2,NE,16.1,26.5,0.00,Fog-Snow,Heavy Snow,40,2013-02-26 19:05:00
1:52 PM,30.9,30.9,100,29.62,0.2,NNE,18.4,31.1,0.00,Fog-Snow,Heavy Snow,30,2013-02-26 19:52:00
2:52 PM,32.0,30.9,96,29.61,0.2,NNE,18.4,31.1,0.00,Fog-Snow,Heavy Snow,30,2013-02-26 20:52:00
3:52 PM,32.0,32.0,100,29.60,0.2,NNE,19.6,31.1,0.00,Fog-Snow,Heavy Snow,30,2013-02-26 21:52:00
4:52 PM,32.0,32.0,100,29.61,0.2,NNE,17.3,28.8,0.00,Fog-Snow,Snow,30,2013-02-26 22:52:00
5:12 PM,32.0,32.0,100,29.58,0.5,NNE,16.1,31.1,0.00,Fog-Snow,Snow,30,2013-02-26 23:12:00
5:45 PM,32.0,32.0,100,29.58,1.0,NNE,18.4,26.5,0.00,Snow,Light Snow,30,2013-02-26 23:45:00
5:52 PM,32.0,32.0,100,29.61,1.0,NNE,15.0,26.5,0.00,Snow,Light Snow,30,2013-02-26 23:52:00
6:52 PM,32.0,32.0,100,29.61,0.8,NNE,16.1,25.3,0.00,Snow,Light Snow,30,2013-02-27 00:52:00
7:01 PM,32.0,32.0,100,29.58,1.0,NNE,16.1,25.3,0.00,Snow,Light Snow,30,2013-02-27 01:01:00
7:52 PM,32.0,32.0,100,29.61,1.0,NNE,18.4,26.5,0.00,Snow,Light Snow,20,2013-02-27 01:52:00
8:52 PM,32.0,32.0,100,29.59,1.2,NNE,16.1,26.5,0.00,Snow,Light Snow,30,2013-02-27 02:52:00
9:39 PM,32.0,32.0,100,29.55,0.8,NNE,11.5,25.3,0.00,Snow,Light Snow,20,2013-02-27 03:39:00
9:52 PM,32.0,32.0,100,29.58,0.8,NNE,16.1,25.3,0.00,Snow,Light Snow,20,2013-02-27 03:52:00
10:48 PM,32.0,32.0,100,29.54,1.5,NNE,16.1,23.0,0.00,Snow,Light Snow,20,2013-02-27 04:48:00
10:52 PM,32.0,32.0,100,29.57,1.8,NNE,18.4,25.3,0.00,Snow,Light Snow,20,2013-02-27 04:52:00
11:15 PM,32.0,32.0,100,29.53,2.0,North,15.0,26.5,0.00,Snow,Light Snow,10,2013-02-27 05:15:00
11:24 PM,32.0,32.0,100,29.53,1.5,NNE,16.1,26.5,0.00,Snow,Light Snow,20,2013-02-27 05:24:00
11:45 PM,32.0,32.0,100,29.53,0.8,NNE,15.0,26.5,0.00,Snow,Light Snow,20,2013-02-27 05:45:00
11:52 PM,32.0,32.0,100,29.57,0.8,NNE,13.8,21.9,0.00,Snow,Light Snow,20,2013-02-27 05:52:00